N6OIM Weather Reports


Display with metric or nautical units.
time (UTC)temp
F
wind
direction
speed
MPH
gust
MPH
rain 1hr
in
rain 24hr
in
rain mn
in
humidity
%
barometer
mb
20181021163423 62 345 2.0 2.0 0.00 0.00 0.00 49 1013.8
20181021160338 58 314 2.0 3.0 0.00 0.00 0.00 59 1014.0
20181021153340 51 279 0.0 0.0 0.00 0.00 0.00 75 1014.0
20181021150417 49 279 0.0 0.0 0.00 0.00 0.00 79 1013.5
20181021140414 50 279 0.0 0.0 0.00 0.00 0.00 75 1013.4
20181021133401 51 279 0.0 0.0 0.00 0.00 0.00 73 1013.3
20181021130335 52 279 0.0 0.0 0.00 0.00 0.00 71 1013.2
20181021123407 53 279 0.0 0.0 0.00 0.00 0.00 65 1013.0
20181021120416 53 279 0.0 0.0 0.00 0.00 0.00 65 1012.8
20181021113329 53 279 0.0 0.0 0.00 0.00 0.00 66 1012.8
20181021110352 52 279 0.0 0.0 0.00 0.00 0.00 68 1012.9
20181021103403 52 279 0.0 0.0 0.00 0.00 0.00 71 1013.0
20181021100345 53 279 0.0 0.0 0.00 0.00 0.00 72 1013.2
20181021093344 53 279 0.0 0.0 0.00 0.00 0.00 72 1013.3
20181021083341 55 279 0.0 0.0 0.00 0.00 0.00 69 1013.1
20181021080328 55 279 0.0 0.0 0.00 0.00 0.00 68 1013.0
20181021073351 56 279 0.0 0.0 0.00 0.00 0.00 68 1012.9
20181021070403 57 279 0.0 0.0 0.00 0.00 0.00 69 1013.0
20181021063444 58 279 0.0 0.0 0.00 0.00 0.00 69 1013.1
20181021060345 60 279 0.0 0.0 0.00 0.00 0.00 66 1013.1
20181021053357 60 279 0.0 0.0 0.00 0.00 0.00 66 1012.9
20181021043406 62 279 0.0 0.0 0.00 0.00 0.00 59 1012.4
20181021033410 65 279 0.0 0.0 0.00 0.00 0.00 52 1012.2
20181021030410 66 279 0.0 0.0 0.00 0.00 0.00 50 1012.2
20181021023354 69 279 0.0 0.0 0.00 0.00 0.00 48 1012.1
20181021020415 72 279 0.0 0.0 0.00 0.00 0.00 45 1011.9
20181021013419 77 279 0.0 0.0 0.00 0.00 0.00 38 1011.7
20181021003441 84 279 0.0 0.0 0.00 0.00 0.00 29 1011.8
20181021000439 84 279 0.0 2.0 0.00 0.00 0.00 27 1011.9
20181020233424 85 229 2.0 4.0 0.00 0.00 0.00 26 1011.9
20181020230351 85 224 1.0 3.0 0.00 0.00 0.00 25 1012.1
20181020223358 85 259 3.0 4.0 0.00 0.00 0.00 25 1012.3
20181020220427 85 229 1.0 3.0 0.00 0.00 0.00 24 1012.4
20181020213408 84 254 1.0 3.0 0.00 0.00 0.00 26 1012.9
20181020210415 83 216 1.0 4.0 0.00 0.00 0.00 26 1013.2
20181020203418 81 218 1.0 3.0 0.00 0.00 0.00 27 1013.9
20181020200435 80 259 1.0 2.0 0.00 0.00 0.00 31 1014.3
20181020193402 78 226 2.0 3.0 0.00 0.00 0.00 34 1014.6
20181020190428 77 225 1.0 5.0 0.00 0.00 0.00 36 1015.1
20181020183345 75 214 0.0 5.0 0.00 0.00 0.00 37 1015.4
20181020180408 73 230 3.0 5.0 0.00 0.00 0.00 38 1015.6
20181020173414 70 192 3.0 4.0 0.00 0.00 0.00 41 1015.9